Retour au catalogue

IRIDIUM 33 DEB

LostPO
NORAD 39779·DEBRIS·🇺🇸 United States

Lancé Sep 14, 1997 depuis Baikonur Cosmodrome

Loading…

Prochains Passages (prochaines 24 heures)

TLE

PériméSource: Space-Track

Époque: Dec 2, 2023, 07:03 UTC

1 39779U 97051AAL 23336.29442425  .00032656  00000-0  80115-2 0  9995
2 39779  86.2969 332.7365 0047309 175.0475 247.0274 14.51541826603224

Suivez IRIDIUM 33 DEB en temps réel avec AllMySat

Download on the App Store